User: anonymous   Login
Location: Unspecified
(0.0000°N, 0.0000°E)
Time: 08:48:41
(UTC+00:00)
Language:

CUTE 1.7 + AOD 2 - Orbit

View from above orbital plane
View from above orbital plane
View from above satellite
View from above satellite

Ground track
Ground track

The orbit data is extracted from the following two-line orbital elements,

1 32785U 08021C   18171.81322508 +.00000200 +00000-0 +27263-4 0  9999
2 32785 097.5466 183.8185 0013901 032.7580 327.4496 14.88132740549648
Epoch (UTC): 20 June 2018 19:31:02
Eccentricity: 0.0013901
inclination: 97.5466°
perigee height: 594 km
apogee height: 613 km
right ascension of ascending node: 183.8185°
argument of perigee: 32.7580°
revolutions per day: 14.88132740
mean anomaly at epoch: 327.4496°
orbit number at epoch: 54964

The dashed part of the orbit path shows where the satellite is in the earth's shadow,  

DLR